TimeCST,TemperatureF,Dew PointF,Humidity,Sea Level PressureIn,VisibilityMPH,Wind Direction,Wind SpeedMPH,Gust SpeedMPH,PrecipitationIn,Events,Conditions,WindDirDegrees,DateUTC
12:15 AM,72.7,68.5,87,29.68,7.0,South,20.7,32.2,N/A,,Overcast,170,2013-02-21 06:15:00
12:35 AM,72.7,68.2,86,29.68,10.0,SSE,24.2,27.6,N/A,,Overcast,160,2013-02-21 06:35:00
12:55 AM,72.9,68.2,85,29.67,10.0,SSE,19.6,31.1,N/A,,Overcast,160,2013-02-21 06:55:00
1:15 AM,72.7,68.2,86,29.66,10.0,SSE,21.9,32.2,N/A,,Overcast,150,2013-02-21 07:15:00
1:35 AM,72.7,68.2,86,29.65,10.0,SSE,25.3,33.4,N/A,,Overcast,150,2013-02-21 07:35:00
1:55 AM,72.5,68.2,86,29.64,7.0,SSE,24.2,33.4,N/A,,Overcast,150,2013-02-21 07:55:00
2:15 AM,72.1,68.0,87,29.64,7.0,SSE,23.0,29.9,N/A,,Overcast,150,2013-02-21 08:15:00
2:35 AM,72.1,68.0,87,29.63,7.0,SSE,23.0,26.5,N/A,,Overcast,150,2013-02-21 08:35:00
2:55 AM,72.1,68.0,87,29.63,7.0,SSE,21.9,27.6,N/A,,Overcast,150,2013-02-21 08:55:00
3:15 AM,72.1,68.0,87,29.62,7.0,SSE,20.7,27.6,N/A,,Overcast,150,2013-02-21 09:15:00
3:35 AM,72.0,68.0,87,29.61,7.0,SSE,23.0,29.9,N/A,,Overcast,160,2013-02-21 09:35:00
3:55 AM,71.8,68.0,88,29.60,7.0,SSE,23.0,28.8,N/A,,Overcast,160,2013-02-21 09:55:00
4:15 AM,71.6,68.0,88,29.61,7.0,SSE,19.6,-,N/A,,Overcast,160,2013-02-21 10:15:00
4:35 AM,71.2,68.0,89,29.59,7.0,SSE,20.7,25.3,N/A,,Overcast,150,2013-02-21 10:35:00
5:15 AM,70.7,67.5,89,29.59,5.0,SSE,18.4,-,N/A,,Mostly Cloudy,160,2013-02-21 11:15:00
5:35 AM,70.2,67.5,91,29.60,5.0,SSE,16.1,-,N/A,,Scattered Clouds,160,2013-02-21 11:35:00
5:55 AM,69.8,67.3,92,29.60,5.0,SSE,16.1,21.9,N/A,,Clear,160,2013-02-21 11:55:00
6:15 AM,69.4,67.1,92,29.61,5.0,South,12.7,-,N/A,,Scattered Clouds,170,2013-02-21 12:15:00
6:35 AM,69.3,67.1,93,29.61,5.0,SSE,12.7,-,N/A,,Scattered Clouds,160,2013-02-21 12:35:00
6:55 AM,68.9,66.6,92,29.62,5.0,SSE,10.4,-,N/A,,Clear,160,2013-02-21 12:55:00
7:15 AM,68.9,66.6,92,29.63,4.0,SSE,11.5,-,N/A,,Clear,160,2013-02-21 13:15:00
7:35 AM,68.9,66.6,92,29.64,4.0,SSE,9.2,-,N/A,,Clear,160,2013-02-21 13:35:00
7:55 AM,69.3,67.1,93,29.64,4.0,South,8.1,-,N/A,,Clear,170,2013-02-21 13:55:00
8:15 AM,71.1,67.8,89,29.65,5.0,South,11.5,-,N/A,,Clear,170,2013-02-21 14:15:00
8:35 AM,72.5,68.0,86,29.65,7.0,SSE,11.5,20.7,N/A,,Clear,160,2013-02-21 14:35:00
8:55 AM,75.2,68.2,79,29.67,10.0,South,18.4,23.0,N/A,,Clear,190,2013-02-21 14:55:00
9:15 AM,75.6,68.0,77,29.67,10.0,South,21.9,-,N/A,,Clear,180,2013-02-21 15:15:00
9:35 AM,76.5,68.0,75,29.67,10.0,South,24.2,27.6,N/A,,Clear,190,2013-02-21 15:35:00
10:15 AM,80.1,67.6,66,29.67,10.0,SSW,24.2,28.8,N/A,,Clear,200,2013-02-21 16:15:00
10:35 AM,80.8,67.5,64,29.71,10.0,WSW,16.1,21.9,N/A,,Mostly Cloudy,250,2013-02-21 16:35:00
10:55 AM,79.9,67.3,65,29.72,10.0,West,16.1,-,N/A,,Overcast,280,2013-02-21 16:55:00
11:15 AM,79.0,66.9,66,29.72,10.0,WNW,16.1,-,N/A,,Mostly Cloudy,290,2013-02-21 17:15:00
11:35 AM,80.1,65.1,60,29.72,10.0,WNW,12.7,-,N/A,,Mostly Cloudy,300,2013-02-21 17:35:00
11:55 AM,79.7,66.4,64,29.73,10.0,NW,11.5,17.3,N/A,,Mostly Cloudy,310,2013-02-21 17:55:00
12:15 PM,79.3,66.0,64,29.72,10.0,WNW,10.4,-,N/A,,Overcast,300,2013-02-21 18:15:00
12:35 PM,80.1,65.1,60,29.71,10.0,WNW,9.2,-,N/A,,Scattered Clouds,300,2013-02-21 18:35:00
12:55 PM,80.6,63.9,57,29.71,10.0,NW,6.9,-,N/A,,Mostly Cloudy,320,2013-02-21 18:55:00
1:15 PM,80.6,63.5,56,29.71,10.0,North,9.2,-,N/A,,Scattered Clouds,360,2013-02-21 19:15:00
1:35 PM,80.8,63.1,55,29.70,10.0,NNW,5.8,-,N/A,,Scattered Clouds,340,2013-02-21 19:35:00
1:55 PM,81.3,62.8,53,29.69,10.0,North,8.1,-,N/A,,Scattered Clouds,350,2013-02-21 19:55:00
2:15 PM,81.7,63.0,53,29.69,10.0,North,10.4,-,N/A,,Scattered Clouds,350,2013-02-21 20:15:00
2:35 PM,82.8,62.4,50,29.68,10.0,North,11.5,-,N/A,,Scattered Clouds,350,2013-02-21 20:35:00
2:55 PM,83.3,62.2,49,29.68,10.0,NNW,13.8,18.4,N/A,,Scattered Clouds,330,2013-02-21 20:55:00
3:15 PM,83.3,61.3,47,29.68,10.0,North,16.1,23.0,N/A,,Scattered Clouds,350,2013-02-21 21:15:00
3:35 PM,81.5,55.9,41,29.68,10.0,North,21.9,25.3,N/A,,Clear,360,2013-02-21 21:35:00
3:55 PM,80.4,55.2,42,29.69,10.0,North,19.6,23.0,N/A,,Clear,360,2013-02-21 21:55:00
4:15 PM,79.5,54.1,41,29.70,10.0,North,19.6,-,N/A,,Clear,360,2013-02-21 22:15:00
4:35 PM,78.6,53.6,42,29.70,10.0,North,19.6,25.3,N/A,,Clear,350,2013-02-21 22:35:00
4:55 PM,78.6,52.3,40,29.71,10.0,North,18.4,23.0,N/A,,Clear,360,2013-02-21 22:55:00
5:15 PM,77.9,50.9,39,29.72,10.0,North,18.4,24.2,N/A,,Clear,350,2013-02-21 23:15:00
5:35 PM,77.4,47.8,35,29.73,10.0,North,15.0,-,N/A,,Clear,360,2013-02-21 23:35:00
5:55 PM,76.5,45.3,33,29.74,10.0,North,12.7,-,N/A,,Clear,360,2013-02-21 23:55:00
6:15 PM,75.2,43.9,33,29.75,10.0,North,9.2,-,N/A,,Clear,360,2013-02-22 00:15:00
6:35 PM,74.3,44.2,34,29.76,10.0,NNE,6.9,-,N/A,,Clear,20,2013-02-22 00:35:00
6:55 PM,72.7,45.9,38,29.76,10.0,NNE,5.8,-,N/A,,Clear,20,2013-02-22 00:55:00
7:15 PM,72.5,47.3,41,29.77,10.0,NE,4.6,-,N/A,,Clear,40,2013-02-22 01:15:00
7:35 PM,72.1,47.8,42,29.77,10.0,NE,8.1,-,N/A,,Clear,40,2013-02-22 01:35:00
7:55 PM,71.6,48.2,43,29.78,10.0,NE,8.1,-,N/A,,Clear,50,2013-02-22 01:55:00
8:15 PM,70.2,48.7,46,29.79,10.0,ENE,6.9,-,N/A,,Clear,60,2013-02-22 02:15:00
8:35 PM,69.8,49.1,48,29.80,10.0,East,8.1,-,N/A,,Clear,80,2013-02-22 02:35:00
8:55 PM,70.0,48.2,46,29.80,10.0,ENE,9.2,-,N/A,,Clear,60,2013-02-22 02:55:00
9:15 PM,68.0,47.5,48,29.81,10.0,East,9.2,-,N/A,,Clear,80,2013-02-22 03:15:00
9:35 PM,67.3,48.4,51,29.81,10.0,East,9.2,-,N/A,,Clear,80,2013-02-22 03:35:00
9:55 PM,68.4,48.2,48,29.81,10.0,East,10.4,-,N/A,,Clear,80,2013-02-22 03:55:00
10:15 PM,67.6,48.4,50,29.81,10.0,ENE,9.2,-,N/A,,Clear,70,2013-02-22 04:15:00
10:35 PM,69.1,48.4,48,29.81,10.0,ENE,8.1,-,N/A,,Clear,60,2013-02-22 04:35:00
10:55 PM,68.0,49.1,51,29.82,10.0,ENE,5.8,-,N/A,,Clear,60,2013-02-22 04:55:00
11:15 PM,66.6,50.0,55,29.82,10.0,ENE,8.1,-,N/A,,Clear,70,2013-02-22 05:15:00
11:35 PM,67.6,50.0,53,29.82,10.0,ENE,8.1,-,N/A,,Clear,70,2013-02-22 05:35:00
11:55 PM,66.6,50.2,56,29.82,10.0,ENE,5.8,-,N/A,,Clear,60,2013-02-22 05:55:00